GFSFLT2_sfc_thetae_231.txt.gz
Theta_e
336 337 337 337 336 336 336 335 335 334 333 332 332 331 331 331 332 332 333 334 334 334 333 331 329 327 329
335 330 331 333 335 335 334 331 329 330 329 328 326 329 330 330 331 333 335 335 334 332 330 329 326 326 330
333 328 328 330 330 330 328 325 324 326 326 326 325 327 329 330 332 333 333 332 329 328 329 326 325 328 328
330 329 331 331 331 329 328 327 327 327 328 327 321 322 325 324 328 331 332 328 326 327 326 324 324 323 322
326 326 326 326 326 326 326 326 327 328 328 328 329 329 329 321 330 331 328 325 322 322 322 321 318 319 321
325 324 325 324 325 326 327 328 328 328 328 328 329 330 332 330 329 328 323 321 317 317 318 316 317 318 318
323 323 324 325 326 327 328 328 327 327 327 328 330 327 325 324 322 320 318 314 311 313 314 315 314 315 314
321 323 324 326 326 327 328 328 327 327 327 327 323 320 318 318 316 315 310 307 305 310 312 311 310 307 302
321 323 324 326 327 326 325 325 326 328 324 322 318 314 312 313 313 312 307 304 303 308 309 308 304 299 297
320 324 326 324 319 317 317 318 319 320 319 316 311 308 306 306 309 305 305 301 300 306 306 305 300 296 296
323 320 315 313 310 309 309 310 312 312 311 308 304 303 302 301 302 303 300 299 298 303 303 300 297 294 294
316 311 308 305 303 302 302 303 303 303 303 302 301 300 299 299 298 300 298 298 297 301 301 299 296 293 293
313 309 307 302 299 298 298 299 299 300 300 300 300 298 296 296 295 296 298 296 294 296 303 298 295 291 290
317 312 305 300 297 296 296 296 297 298 298 298 297 296 295 295 294 293 295 296 294 293 293 298 297 295 291
309 301 298 297 295 294 294 294 295 296 296 296 295 295 294 294 292 291 292 293 292 292 291 293 290 289 290
306 302 301 300 294 293 293 293 294 296 296 295 294 293 293 292 290 290 290 290 291 289 291 290 289 288 286

GFSFLT2_sfc_thetae_234.txt.gz
Theta_e
338 338 339 340 339 338 338 337 336 334 334 333 332 331 331 332 333 334 335 335 335 334 333 331 328 328 333
338 331 332 334 335 335 334 332 330 331 331 330 328 330 330 332 333 334 334 333 333 332 330 327 327 329 333
339 331 328 330 331 330 329 325 325 329 328 327 325 328 330 330 332 334 333 330 330 329 326 325 326 328 328
331 332 331 332 332 331 330 329 328 329 330 331 324 324 325 325 331 332 329 328 327 327 326 325 324 325 326
330 331 331 331 331 331 331 331 331 331 333 334 335 335 336 324 336 335 331 328 325 323 323 321 320 323 322
328 329 329 327 330 330 331 332 332 332 333 334 335 335 335 335 333 331 328 322 318 319 319 320 321 321 318
326 325 326 327 330 331 332 333 332 332 333 334 334 331 327 324 325 325 322 314 315 316 318 319 319 315 313
325 325 327 329 332 332 333 333 333 333 333 332 329 326 322 321 318 318 313 309 312 315 315 314 310 307 306
324 326 329 331 331 332 333 333 332 331 331 325 324 317 315 316 317 318 309 308 312 313 312 307 304 304 304
323 326 329 331 331 327 326 329 327 326 322 317 312 308 308 312 311 308 307 305 310 311 309 302 300 298 298
323 327 329 324 320 315 316 319 318 316 315 313 307 305 306 306 306 304 302 303 308 306 303 296 295 295 297
324 323 315 309 307 308 307 309 313 311 308 305 303 304 303 304 303 303 301 301 302 303 298 293 292 294 297
320 315 310 307 305 302 301 302 303 304 303 303 300 300 301 300 299 299 299 295 295 296 298 295 294 294 295
321 320 315 306 303 300 298 299 300 300 300 300 299 298 298 296 294 294 296 296 293 293 295 303 299 297 293
319 304 301 300 298 296 296 296 297 298 298 297 297 296 294 294 292 292 292 294 292 295 294 297 294 293 295
310 306 303 307 302 297 295 295 296 298 296 295 294 293 292 292 291 291 292 293 295 293 295 292 292 292 291

GFSFLT2_sfc_thetae_237.txt.gz
Theta_e
339 340 340 340 340 340 340 339 337 335 334 334 333 332 332 333 334 335 335 335 334 334 332 330 329 330 330
342 332 334 336 336 337 335 333 331 332 332 331 331 331 331 333 334 334 334 333 332 329 327 327 327 329 328
337 329 329 330 331 330 329 327 326 329 329 326 326 330 330 331 333 334 331 328 330 328 326 325 326 325 326
336 332 333 332 331 330 330 329 328 328 328 328 324 326 327 329 333 331 329 329 327 325 324 325 322 324 324
333 332 329 329 329 329 330 329 328 328 330 332 333 331 334 324 334 332 330 326 323 322 320 320 322 321 321
330 328 328 327 328 329 331 329 329 330 331 332 332 333 336 333 331 330 327 320 319 318 320 320 320 318 318
328 327 327 326 327 329 330 330 329 330 331 332 331 332 329 327 326 326 321 315 317 317 318 317 314 313 314
326 324 324 325 327 330 330 329 330 330 332 331 330 327 325 323 322 318 314 312 315 316 313 310 308 308 309
324 324 324 327 329 329 328 329 330 330 332 329 325 321 318 318 320 318 311 311 314 313 308 305 304 303 303
324 324 325 328 328 329 328 329 331 329 326 321 317 313 312 316 313 310 308 308 311 311 304 300 298 299 299
324 324 327 328 326 326 327 328 326 324 321 315 312 309 310 311 309 306 305 308 308 304 296 295 295 297 298
324 325 323 321 320 316 315 319 320 317 314 309 307 306 307 307 305 303 302 303 302 299 293 292 294 297 299
322 322 317 313 311 308 306 307 309 310 308 306 304 303 303 302 302 301 298 298 297 297 295 294 294 296 297
323 320 318 313 310 306 303 302 302 302 302 302 301 300 299 297 295 295 298 295 294 295 297 299 295 294 294
323 321 312 305 302 301 300 299 299 299 300 299 299 296 295 294 292 292 294 296 293 295 295 295 295 294 294
322 312 307 309 304 304 299 298 298 298 296 295 294 293 293 292 291 292 293 295 298 294 295 293 293 293 291

GFSFLT2_sfc_thetae_240.txt.gz
Theta_e
340 339 340 340 339 339 336 336 336 335 335 334 334 333 334 334 335 335 335 335 335 332 329 329 328 329 327
338 333 335 336 337 336 335 333 331 332 332 332 330 333 333 334 335 335 334 333 332 328 327 326 326 326 323
338 330 330 331 331 330 329 327 325 327 327 325 326 331 332 333 335 333 330 330 330 327 325 324 323 321 320
336 332 332 332 330 329 327 325 325 324 323 326 322 326 328 330 334 332 331 328 322 320 317 320 318 319 316
331 331 330 329 325 325 325 324 324 325 325 325 323 323 323 321 331 329 322 318 316 315 315 316 315 317 315
331 330 327 325 323 323 325 325 323 324 324 325 329 330 329 329 325 323 317 314 313 315 316 314 313 314 311
327 326 324 322 323 324 325 325 325 324 325 327 328 327 325 322 320 317 311 311 312 313 311 308 307 309 309
323 322 321 321 322 324 324 324 325 326 325 328 326 323 319 317 316 309 307 309 311 308 305 304 302 302 307
321 320 319 320 322 324 326 325 325 326 328 326 322 316 314 314 314 307 305 309 309 304 300 299 299 299 301
319 318 319 322 325 323 326 326 326 325 323 316 314 310 310 311 306 305 303 306 306 299 296 297 298 299 300
320 319 320 323 324 325 326 326 324 320 316 311 308 309 309 306 303 302 303 305 297 295 294 295 296 297 297
320 319 322 320 316 317 314 317 315 313 310 306 305 304 305 302 300 301 300 300 297 294 293 293 295 297 298
319 318 315 311 311 307 304 305 307 307 306 303 301 300 300 299 298 300 300 297 296 294 293 293 293 295 293
320 318 314 310 307 302 300 300 301 302 301 300 300 299 298 295 295 297 297 294 294 295 297 296 291 289 289
320 317 310 304 301 298 297 297 298 299 299 298 296 295 294 294 292 293 296 295 293 293 293 293 291 290 288
319 313 306 306 301 299 297 296 295 295 294 294 294 293 292 292 292 292 293 293 296 291 292 291 289 288 286

GFSFLT2_sfc_thetae_246.txt.gz
Theta_e
338 338 338 339 338 336 335 338 336 336 336 336 336 335 336 336 336 336 335 332 329 329 330 328 325 324 320
338 333 334 335 336 334 334 333 331 332 332 333 331 335 336 336 336 335 334 331 328 329 327 324 322 322 319
336 332 330 331 331 330 328 327 326 327 328 327 327 333 336 335 335 332 330 331 326 326 323 320 319 316 318
337 334 335 334 332 329 325 326 326 325 324 325 323 328 331 332 333 330 325 326 318 315 316 317 313 312 314
335 334 333 332 331 328 326 324 323 323 320 321 321 323 323 323 325 316 313 313 312 313 313 311 309 309 311
334 332 332 331 329 328 326 322 320 318 317 318 319 320 321 324 317 311 312 311 310 311 311 308 306 306 308
332 331 331 330 328 327 325 322 321 319 318 319 319 321 323 322 313 309 311 307 305 304 308 306 304 303 304
331 329 330 329 326 325 325 322 321 321 320 321 322 324 319 316 309 310 307 303 300 301 302 305 302 300 300
330 329 328 326 325 324 324 321 321 322 320 323 321 319 317 311 308 309 303 300 298 300 299 302 300 297 295
329 327 325 324 323 324 324 322 322 323 323 322 319 317 314 308 308 306 301 296 295 296 296 299 297 296 295
328 324 324 323 323 323 324 322 320 321 323 318 317 314 311 306 305 305 298 296 294 294 297 297 295 293 293
322 319 320 320 320 321 321 319 319 315 316 315 312 310 306 303 303 302 295 294 295 296 296 295 294 293 292
319 316 315 316 310 307 311 314 313 311 309 310 309 304 302 302 301 299 295 294 293 296 294 294 294 293 290
320 320 316 310 302 301 301 301 304 304 304 303 303 301 300 300 298 296 295 294 293 295 292 292 287 289 289
321 314 307 303 301 299 298 297 298 299 299 299 298 297 296 297 297 297 296 294 292 292 292 295 289 287 287
318 314 311 312 306 299 298 295 294 296 295 295 294 294 294 294 295 295 296 295 293 289 291 290 290 291 288